Theta_e
312 312 312 313 313 314 314 314 315 316 316 316 315 315 316 316 316 315 315 312 310 310 308 307 306 306 309 312 314 316 311 311 312 311 312 318 318 319 321 323 323 324 330 329 335
310 311 311 310 310 310 311 311 313 313 315 316 316 316 315 316 316 315 313 313 312 309 308 307 308 308 311 313 314 313 309 312 312 314 315 316 317 318 319 320 321 330 328 329 337
305 303 305 307 308 307 308 309 311 312 312 313 315 316 316 316 315 312 311 310 311 311 308 306 309 309 310 313 314 313 311 311 314 315 314 315 315 317 315 316 319 333 331 336 339
297 298 298 298 298 299 299 300 308 310 312 313 313 314 314 315 314 313 313 311 308 308 308 306 308 309 309 311 313 313 312 312 313 314 314 314 313 314 316 316 319 323 331 336 339
297 297 298 298 298 299 298 299 301 304 310 312 312 313 313 313 315 315 313 311 310 308 306 307 308 309 309 309 311 311 312 313 313 313 313 313 312 312 313 317 316 317 335 338 337
295 296 297 298 299 299 299 298 300 305 308 310 312 313 313 311 313 313 313 313 311 309 306 306 309 309 309 309 310 310 310 310 312 312 312 312 311 311 313 315 316 315 317 330 331
295 296 296 297 297 298 299 299 299 305 310 311 312 312 312 312 311 312 312 311 311 309 307 306 307 309 308 309 309 310 309 308 308 310 310 311 309 309 313 315 314 315 315 318 327
295 295 296 297 297 298 298 299 300 303 309 312 312 310 311 310 310 310 309 309 308 307 306 306 307 306 308 308 308 308 308 308 310 309 310 311 313 311 313 312 313 314 314 318 321
295 296 296 296 297 298 298 299 300 306 304 303 309 308 310 309 309 310 309 306 306 306 305 305 305 306 307 306 306 307 309 309 311 309 307 307 310 309 311 310 310 312 313 314 315
295 296 296 297 297 297 298 299 302 309 300 304 305 304 308 307 308 309 307 305 305 305 305 304 306 304 304 305 309 308 307 307 310 309 306 305 305 307 309 308 309 310 312 311 312
296 296 296 296 296 296 297 299 300 300 305 304 307 306 309 308 309 309 308 305 304 305 304 305 303 303 304 305 308 309 308 308 310 309 308 307 307 307 308 307 306 308 309 310 310
295 296 296 296 296 295 296 299 301 302 303 306 306 306 305 307 309 307 308 303 303 303 303 304 304 304 304 304 305 306 306 307 307 309 306 307 307 307 307 306 308 308 309 310 311
295 296 296 296 296 295 296 302 302 302 302 305 306 304 303 305 307 307 307 307 303 303 304 304 305 306 305 305 306 305 305 306 307 309 307 307 310 309 309 308 309 310 311 312 312
294 295 295 296 296 294 295 303 304 303 298 303 305 304 299 302 305 303 305 306 305 306 305 306 306 305 307 307 306 306 306 307 307 309 310 309 313 310 310 310 308 310 309 312 313
293 294 294 295 293 293 295 298 304 304 290 299 304 302 296 298 301 305 304 305 306 306 305 307 307 307 308 308 307 310 306 308 308 308 306 309 306 311 310 312 311 308 309 311 312
293 293 294 294 294 293 294 301 305 290 291 300 301 297 296 298 302 301 302 303 304 305 305 306 306 307 308 307 304 308 310 311 308 304 306 311 310 313 312 311 311 309 312 312 311
292 293 293 293 294 293 295 302 290 291 293 297 296 295 296 296 297 297 300 301 301 304 304 305 305 307 306 307 307 309 311 314 314 312 314 308 308 312 310 309 309 309 311 312 312
292 293 293 292 293 295 297 292 289 287 294 296 295 295 298 295 295 295 295 294 300 302 303 307 305 306 306 305 309 308 311 314 314 314 311 305 312 311 308 307 309 310 312 312 311
292 292 293 293 295 296 298 291 293 296 294 294 294 296 294 294 294 293 293 295 300 298 300 301 305 303 304 303 306 309 309 307 311 309 313 311 308 309 307 305 303 303 304 308 309
292 292 292 292 293 295 293 295 294 293 294 294 295 294 293 294 292 292 292 296 296 294 294 298 298 302 303 304 305 307 308 309 310 312 314 313 309 312 306 304 303 302 302 302 303
291 292 292 292 292 293 286 282 293 291 291 294 292 293 293 291 291 290 291 294 294 292 292 296 296 298 302 303 304 304 306 307 309 310 313 316 308 303 301 302 301 301 301 302 303
291 288 291 291 290 287 282 287 290 290 290 291 291 290 292 291 291 292 292 292 290 291 292 294 297 296 299 297 300 302 303 305 307 307 309 311 311 305 307 305 304 303 300 302 303
291 291 290 291 283 278 285 290 290 289 289 290 290 290 290 290 285 290 289 290 291 290 292 294 290 293 292 293 294 296 295 298 300 306 308 309 312 305 305 303 303 303 303 301 302
291 284 290 290 289 288 281 284 285 289 289 289 289 290 290 289 289 283 288 290 290 290 291 292 292 291 291 293 292 293 296 294 294 301 304 306 306 305 305 303 303 302 302 304 301
290 290 289 280 284 289 289 286 286 286 289 289 289 289 290 283 288 285 286 289 290 290 291 289 284 289 289 292 290 294 292 292 292 294 301 301 301 301 300 301 302 303 303 303 304
290 290 290 290 290 289 288 287 289 288 289 288 289 289 289 283 289 287 289 289 289 289 289 290 287 287 287 288 291 291 292 291 294 298 300 301 301 296 295 295 300 303 304 304 303
290 290 290 289 289 285 286 289 290 290 290 290 289 289 289 290 289 289 289 289 289 289 288 287 289 281 287 288 285 286 288 293 295 294 297 298 296 295 295 295 296 296 296 298 299
Wind_Speed
17 17 16 15 15 14 13 14 14 14 13 13 13 14 16 16 13 14 14 12 8 7 7 7 4 5 10 9 5 2 1 3 4 5 5 2 2 2 6 8 4 7 12 11 27
19 18 16 17 15 15 15 15 14 14 14 13 13 14 16 18 18 14 7 10 11 8 7 7 3 5 5 6 5 4 3 7 3 2 3 2 3 5 4 5 2 6 12 17 29
20 20 20 19 19 20 21 17 16 15 15 14 13 13 15 17 16 3 5 4 5 10 8 8 6 5 5 6 8 6 5 4 2 2 4 3 1 2 6 4 10 14 23 30 30
20 21 20 21 22 21 21 20 18 17 16 15 14 13 13 13 3 4 8 8 5 4 7 7 7 4 4 5 10 4 11 11 5 3 3 3 4 4 9 4 8 16 22 31 32
21 22 23 22 23 22 23 21 19 19 16 16 15 13 12 8 9 8 8 8 7 6 6 8 7 4 4 3 4 5 4 6 5 7 8 7 8 6 13 15 12 10 28 33 32
22 22 23 24 24 22 22 22 22 19 17 16 14 11 10 5 8 9 8 8 8 8 7 7 5 6 6 5 3 3 4 8 9 9 9 5 2 5 16 22 21 16 20 33 33
22 23 22 23 25 24 23 21 19 17 17 15 13 9 10 11 12 14 15 11 10 9 9 9 10 7 2 4 5 4 6 6 8 9 6 6 6 12 30 11 26 28 23 28 35
22 22 22 22 23 25 25 23 16 16 16 14 11 7 2 7 11 15 14 14 10 8 9 10 9 9 5 5 4 2 1 2 4 9 6 10 12 9 19 25 30 26 30 27 33
25 25 24 23 23 25 24 24 15 9 22 12 9 11 4 8 19 19 18 14 10 8 6 6 5 5 2 1 4 2 5 6 6 9 4 6 7 6 11 15 24 28 23 31 32
28 27 27 25 26 26 27 21 12 6 13 9 16 4 10 23 18 20 15 12 8 9 4 4 3 1 2 3 8 8 6 5 6 6 4 5 12 12 10 7 20 22 26 27 30
28 28 28 24 25 27 28 26 21 8 26 12 11 3 11 20 14 19 14 14 7 5 4 2 2 6 10 12 6 4 5 6 3 3 5 8 14 16 17 15 14 21 24 26 30
26 26 26 21 20 23 26 22 15 6 9 13 14 18 18 14 9 17 17 10 7 5 7 5 6 10 6 7 8 12 10 10 7 3 6 7 14 11 12 12 24 27 31 30 28
25 25 24 22 16 21 22 18 8 7 3 7 8 18 22 16 7 14 14 8 3 6 7 8 8 5 3 8 10 11 13 4 11 2 4 4 16 10 10 20 23 32 36 36 36
23 23 23 22 15 22 17 12 10 5 4 7 7 9 27 16 4 21 9 6 3 3 6 8 7 10 15 11 5 12 7 12 11 3 7 3 12 9 6 17 13 28 32 41 42
22 20 21 22 16 21 19 14 8 1 5 10 5 6 31 9 13 14 14 6 4 3 4 7 9 14 12 6 7 7 7 6 6 5 3 6 1 5 6 12 10 13 29 41 46
21 18 18 20 18 20 15 10 2 6 3 7 8 11 13 14 10 19 17 12 11 4 7 14 8 4 6 11 3 4 1 9 6 2 4 24 11 21 11 9 6 8 26 30 35
20 16 16 20 25 22 15 3 5 6 5 8 6 11 6 10 8 12 10 7 5 6 7 14 9 5 4 5 3 3 2 2 5 4 7 4 8 21 4 4 6 9 21 27 31
18 15 12 20 19 16 9 5 8 4 3 4 7 11 4 13 6 13 9 9 10 12 9 7 7 8 7 3 2 2 4 5 6 4 5 3 8 12 4 11 23 26 28 19 22
17 13 11 17 14 12 3 6 4 2 4 5 8 5 5 7 4 10 6 3 11 18 10 6 6 14 12 4 6 1 5 4 6 3 3 4 6 10 6 7 9 11 11 22 20
18 10 15 16 12 10 6 5 3 6 5 2 3 4 4 5 6 6 4 3 7 16 16 5 13 5 5 4 5 3 3 3 3 4 6 3 4 5 15 16 14 10 6 6 13
12 4 16 14 7 12 4 4 3 8 12 4 4 4 3 5 4 2 5 6 13 14 18 9 5 11 6 2 1 3 3 5 4 4 4 2 2 6 7 11 18 12 10 4 10
9 3 17 13 8 5 2 1 4 5 6 2 3 2 2 6 4 3 2 3 24 16 6 5 6 8 16 18 11 6 11 11 5 4 4 5 7 4 11 15 23 27 21 6 8
9 7 13 9 4 3 4 2 1 2 2 2 2 0 1 3 4 3 4 14 12 15 6 8 4 6 12 6 8 5 11 15 19 3 8 7 2 3 9 16 27 29 36 21 9
7 3 7 11 9 4 2 3 3 4 4 4 4 1 1 3 5 5 7 7 19 20 22 2 2 6 8 12 9 17 16 15 10 7 6 7 11 9 14 14 14 26 29 31 11
6 2 3 3 3 1 1 4 2 2 3 4 1 3 5 3 6 5 6 12 12 17 5 1 6 11 14 12 15 17 18 21 19 16 8 10 15 18 18 16 17 17 13 18 10
4 1 0 6 8 2 2 3 5 4 4 4 6 9 5 6 9 15 10 9 10 8 8 3 8 8 14 17 13 19 15 21 17 7 9 12 11 16 23 31 24 25 12 14 13
3 4 2 6 3 4 4 5 5 3 9 13 8 5 8 14 18 21 22 24 22 18 18 6 7 1 15 9 5 6 8 10 13 5 7 5 8 15 20 22 20 27 30 27 28
Wind_Direction
16 13 12 8 2 3 358 349 345 342 337 337 338 336 329 321 314 303 283 263 254 257 283 288 268 201 195 196 196 194 56 245 251 171 250 200 159 160 130 149 165 175 171 193 167
359 359 356 350 350 349 347 343 337 331 327 326 330 332 331 325 319 304 274 258 265 269 273 257 204 205 217 197 205 157 181 225 238 268 238 259 188 170 158 145 129 154 178 174 168
351 349 344 340 335 333 331 328 327 323 321 318 314 322 326 329 322 336 25 16 279 266 257 249 229 232 251 205 197 186 214 232 261 285 323 302 225 202 142 239 197 169 157 167 173
6 1 0 353 349 345 337 332 318 316 316 312 311 312 317 326 296 302 326 322 312 298 259 241 212 203 242 223 207 206 232 240 277 254 282 267 301 262 205 227 197 195 180 175 181
15 9 3 360 355 350 348 345 336 319 312 310 308 308 312 296 280 294 299 305 303 287 246 220 215 218 238 268 275 229 255 269 269 250 257 257 259 264 258 215 180 173 191 186 193
14 13 9 1 359 357 353 344 339 335 318 318 311 302 300 260 292 297 301 304 302 287 262 231 216 219 277 261 226 321 284 280 284 255 249 232 237 193 249 229 225 223 204 206 205
4 2 2 2 0 359 359 349 339 338 335 327 320 306 285 285 301 308 312 310 301 281 273 253 250 245 282 280 306 308 310 314 242 236 239 225 274 227 244 233 228 222 217 212 211
9 4 1 3 7 4 358 354 347 334 354 350 337 328 295 354 10 352 332 316 293 277 265 262 262 260 244 295 313 299 203 285 270 178 225 155 262 253 255 236 237 228 217 207 210
16 10 8 4 7 9 6 2 357 6 355 353 30 0 7 27 0 351 336 320 308 300 272 251 241 229 240 137 347 309 254 224 299 198 138 179 251 259 254 241 231 222 218 217 216
15 11 6 2 4 3 10 12 39 42 8 55 14 8 20 334 324 353 347 325 308 316 292 211 204 255 32 137 224 210 227 241 222 210 177 207 248 264 255 246 235 230 225 221 223
11 9 5 359 2 0 2 13 44 20 42 41 357 2 335 356 20 357 343 334 301 305 301 274 156 213 216 224 243 250 244 246 246 218 193 235 244 250 262 254 249 238 236 235 231
11 10 5 360 2 3 9 55 51 360 321 39 45 31 16 8 12 13 8 10 351 313 337 324 264 248 235 247 260 268 273 262 284 274 203 268 262 251 244 237 233 239 243 241 240
9 8 10 5 4 5 27 46 25 4 260 335 25 22 16 355 345 358 12 10 330 326 302 250 269 352 198 255 255 252 248 259 247 286 255 339 279 246 248 238 241 243 245 244 238
5 7 7 6 5 2 12 17 5 357 70 339 354 19 2 358 325 329 350 351 357 281 335 280 334 316 288 265 224 261 215 238 240 151 245 164 274 220 216 236 226 236 230 236 237
1 4 5 14 11 6 345 349 342 33 55 309 4 347 356 14 305 13 345 334 280 270 74 259 295 304 310 297 258 258 327 272 229 198 94 224 307 254 196 239 235 235 232 236 238
356 358 -0 7 3 352 343 338 357 42 268 326 2 345 355 5 9 2 7 344 301 294 228 257 283 264 231 234 246 307 262 314 347 82 207 238 195 273 233 232 236 240 246 243 239
351 352 357 1 347 342 341 349 37 95 318 330 342 336 352 348 342 8 357 12 349 325 340 303 276 271 270 270 253 143 102 251 223 206 238 163 177 240 255 286 263 260 266 253 245
349 346 353 356 346 342 351 53 72 250 309 360 340 313 52 21 355 348 7 351 28 15 314 328 329 359 345 350 160 279 262 228 243 206 241 139 211 242 223 261 262 260 258 265 252
351 341 358 2 358 357 1 54 168 174 310 317 322 18 347 21 335 2 339 329 33 26 356 301 277 325 288 249 147 97 248 321 298 242 252 198 277 298 2 326 320 306 277 255 242
352 348 7 1 359 2 66 110 125 34 312 340 18 25 345 357 20 5 309 41 9 16 357 311 303 295 296 330 244 199 146 300 263 251 254 241 280 264 358 337 325 304 286 244 216
358 4 357 357 7 46 95 206 50 17 17 357 15 340 336 356 332 255 274 335 28 354 353 296 235 292 324 257 284 320 280 231 244 258 302 295 237 350 357 352 348 322 310 246 181
11 25 356 3 47 40 77 181 350 359 355 341 52 7 351 336 303 300 275 314 342 357 333 278 301 289 279 281 297 271 266 259 265 251 286 289 261 341 19 11 7 4 343 256 218
6 339 12 26 81 344 331 350 335 345 324 9 338 242 57 316 331 295 346 311 320 346 343 337 320 317 330 1 31 348 322 343 331 253 240 243 301 311 33 14 3 352 349 328 248
6 14 21 54 84 115 99 286 310 262 261 221 267 260 22 273 236 272 290 303 317 302 308 340 274 279 276 283 299 296 319 318 318 297 328 277 304 319 330 332 356 334 338 337 315
20 44 15 308 350 72 179 194 228 303 240 212 284 200 287 267 285 248 289 299 298 300 302 161 234 285 268 260 285 272 295 311 303 270 264 296 308 323 323 310 303 285 300 322 344
336 12 89 284 286 187 239 248 210 253 201 247 240 270 258 201 254 290 290 290 288 285 280 223 273 271 286 286 265 283 285 289 289 300 283 286 274 351 339 356 330 299 263 291 240
253 224 260 245 209 120 224 212 219 216 267 263 241 276 268 263 285 286 287 277 263 275 273 266 261 253 272 286 309 294 245 257 276 28 321 356 353 350 352 342 353 42 23 12 344